星链-33928 (STARLINK-33928)

导读

STARLINK-33928是美国于2025年5月14日发射的星链卫星,属于SpaceX星链星座组网任务中发射的卫星。星链项目旨在构建全球卫星互联网通信系统,为全球偏远地区、高覆盖需求区域提供高速低延迟的宽带网络服务,该卫星入轨后承担通信信号传输、星座组网补位相关工作。

基本信息
目录编号:
64003
目录名称:
STARLINK-33928
国际标识:
2025-101K
轨道中心:
EARTH
卫星名称:
星链-33928
卫星全名:
星链-33928 (STARLINK-33928)
卫星状态:
在轨 (已飞行396 天)
发射日期:
2025-05-14 UTC
国别 :
美国 (US)
星等 :
--
轨道信息
数据来源 国际轨道数据
星历时间: 2026-06-13T15:28:04+0800
20小时前
查看轨道信息
半长轴: 6861.134km
偏心率: 0.0002893
轨道倾角: 43.002°
近地点辐角 274.828°
升交点赤经 177.570°
平近点角 85.224°
近地点: 481.012km
远地点: 484.982km
周期: 94.266分钟
每日圈数: 15.275974
详细信息
固有亮度:
5
最大亮度:
2.5
卫星平台:
Starlink V1.0
覆盖范围:
全球
运营商:
太空探索技术公司
运营商所在国:
美国
制造商(研发单位):
太空探索技术公司
制造商所在国:
美国
使用方式:
暂无
卫星简介
Starlink 计划是 SpaceX 推出的全球卫星互联网项目,通过发射低轨道卫星,为全球尤其是偏远地区提供高速、低延迟的互联网服务。自 2019 年起,Starlink 已部署数千颗卫星,旨在缩小全球数字鸿沟,推动互联网普及。该项目还为军事、航空等行业提供通信支持,带来广泛经济效益。
2D轨道图
3D轨道图
轨道高度分析图
轨道倾角分析图
轨道综合分析图
查看轨道综合分析图